This is the latest recevied weather packets stored in our database for station/object K2CCS. If no packets are shown the sender has not sent any weather packets the latest 10 day(s).
| Time | Temp. | Humidity | Pressure | Rain* | Wind** | Luminosity | Snow |
|---|---|---|---|---|---|---|---|
| 1777254525 | 11.67° C | 54% | 1025.8 hPa | 0 mm | - | 0 W/m² | - |
| 1777254221 | 12.22° C | 52% | 1025.8 hPa | 0 mm | - | 0 W/m² | - |
| 1777253917 | 12.78° C | 51% | 1025.9 hPa | 0 mm | - | 0 W/m² | - |
| 1777253613 | 12.78° C | 51% | 1025.6 hPa | 0 mm | - | 0 W/m² | - |
| 1777253312 | 13.33° C | 50% | 1025.5 hPa | 0 mm | - | 0 W/m² | - |
| 1777253009 | 13.33° C | 48% | 1025.5 hPa | 0 mm | - | 0 W/m² | - |
| 1777252706 | 13.89° C | 46% | 1025.5 hPa | 0 mm | - | 0 W/m² | - |
| 1777252403 | 13.89° C | 45% | 1025.4 hPa | 0 mm | - | 0 W/m² | - |
| 1777252100 | 14.44° C | 44% | 1025.4 hPa | 0 mm | - | 0 W/m² | - |
| 1777251798 | 15° C | 43% | 1025.2 hPa | 0 mm | - | 0 W/m² | - |
| 1777251494 | 15° C | 43% | 1025.2 hPa | 0 mm | - | 0 W/m² | - |
| 1777251191 | 15° C | 42% | 1025.1 hPa | 0 mm | - | 0 W/m² | - |
| 1777250887 | 15.56° C | 41% | 1025.1 hPa | 0 mm | - | 0 W/m² | - |
| 1777250584 | 15.56° C | 41% | 1024.9 hPa | 0 mm | - | 0 W/m² | - |
| 1777250279 | 15.56° C | 41% | 1024.7 hPa | 0 mm | - | 0 W/m² | - |
| 1777249975 | 15.56° C | 41% | 1024.6 hPa | 0 mm | - | 0 W/m² | - |
| 1777249671 | 15.56° C | 41% | 1024.6 hPa | 0 mm | - | 0 W/m² | - |
| 1777249368 | 16.11° C | 40% | 1024.4 hPa | 0 mm | - | 0 W/m² | - |
| 1777249065 | 16.11° C | 40% | 1024.5 hPa | 0 mm | - | 0 W/m² | - |
| 1777248761 | 16.11° C | 40% | 1024.4 hPa | 0 mm | - | 0 W/m² | - |
| 1777248458 | 16.11° C | 40% | 1024.3 hPa | 0 mm | - | 0 W/m² | - |
| 1777248154 | 16.67° C | 39% | 1024.4 hPa | 0 mm | - | 0 W/m² | - |
| 1777247853 | 16.67° C | 39% | 1024.3 hPa | 0 mm | - | 0 W/m² | - |
| 1777247550 | 16.67° C | 38% | 1024 hPa | 0 mm | - | 0 W/m² | - |
| 1777247248 | 17.22° C | 38% | 1024.2 hPa | 0 mm | - | 3 W/m² | - |
* Rain latest hour (hover to see other rain measurements)
** Current wind speed in m/s (hover to see current wind gust speed)